Location: Drignac
(45.1667°N, 2.0333°E)
Time: 11:11:27
(UTC+00:00)

STARLINK-1125 - Pass Details

Date: 29 March 2020
Orbit: 548 x 551 km, 53.0° (Epoch: 26 May)

Event Time Altitude Azimuth Distance (km) Brightness Sun altitude
Rises 19:52:48 0° 301° (WNW) 2,727 8.9 -17.2°
Reaches altitude 10° 19:55:03 10° 298° (WNW) 1,830 7.6 -17.5°
Maximum altitude 19:59:09 61° 218° (SW) 625 3.9 -18.2°
Enters shadow 20:00:34 37° 154° (SSE) 860 4.2 -18.4°
